This is the latest recevied weather packets stored in our database for station/object WB4YDL. If no packets are shown the sender has not sent any weather packets the latest 10 day(s).
| Time | Temp. | Humidity | Pressure | Rain* | Wind** | Luminosity | Snow |
|---|---|---|---|---|---|---|---|
| 1777752838 | 18.33° C | 44% | 1011.9 hPa | 0 mm | - | 278 W/m² | - |
| 1777752535 | 18.89° C | 40% | 1011.9 hPa | 0 mm | - | 778 W/m² | - |
| 1777752230 | 18.89° C | 44% | 1011.9 hPa | 0 mm | - | 741 W/m² | - |
| 1777751929 | 18.89° C | 45% | 1011.9 hPa | 0 mm | - | 244 W/m² | - |
| 1777751625 | 18.33° C | 46% | 1011.7 hPa | 0 mm | - | 585 W/m² | - |
| 1777751322 | 18.89° C | 44% | 1011.7 hPa | 0 mm | - | 769 W/m² | - |
| 1777751019 | 18.89° C | 44% | 1011.9 hPa | 0 mm | - | 793 W/m² | - |
| 1777750714 | 17.78° C | 45% | 1011.8 hPa | 0 mm | - | 410 W/m² | - |
| 1777750412 | 18.33° C | 45% | 1012 hPa | 0 mm | - | 264 W/m² | - |
| 1777750107 | 18.89° C | 45% | 1011.7 hPa | 0 mm | - | 393 W/m² | - |
| 1777749804 | 18.89° C | 42% | 1011.8 hPa | 0 mm | - | 395 W/m² | - |
| 1777749502 | 18.89° C | 41% | 1011.7 hPa | 0 mm | - | 317 W/m² | - |
| 1777749200 | 18.33° C | 44% | 1011.8 hPa | 0 mm | - | 938 W/m² | - |
| 1777748897 | 18.89° C | 45% | 1011.7 hPa | 0 mm | - | 252 W/m² | - |
| 1777748594 | 17.78° C | 45% | 1011.6 hPa | 0 mm | - | 845 W/m² | - |
| 1777748289 | 18.89° C | 42% | 1011.9 hPa | 0 mm | - | 265 W/m² | - |
| 1777747985 | 18.33° C | 42% | 1011.9 hPa | 0 mm | - | 970 W/m² | - |
| 1777747682 | 18.33° C | 41% | 1011.9 hPa | 0 mm | - | 213 W/m² | - |
| 1777747378 | 19.44° C | 40% | 1011.6 hPa | 0 mm | - | 180 W/m² | - |
| 1777747074 | 18.89° C | 43% | 1011.8 hPa | 0 mm | - | 956 W/m² | - |
| 1777746771 | 17.78° C | 44% | 1012 hPa | 0 mm | - | 397 W/m² | - |
| 1777746466 | 18.33° C | 45% | 1011.8 hPa | 0 mm | - | 215 W/m² | - |
| 1777746161 | 18.89° C | 39% | 1012 hPa | 0 mm | - | 219 W/m² | - |
| 1777745858 | 18.89° C | 40% | 1012 hPa | 0 mm | - | 246 W/m² | - |
| 1777745552 | 17.78° C | 39% | 1011.9 hPa | 0 mm | - | 967 W/m² | - |
* Rain latest hour (hover to see other rain measurements)
** Current wind speed in m/s (hover to see current wind gust speed)